Aérodrome :
LOGIN :

S'inscrire | Disclaimer

   EN    FR    IT 

 










Légende :    VFR   VFR Marginal   IFR   IFR Intensif   IFR Très Intensif
Visi : 
Plafond : 
>= 8 km
>= 3000ft
5 à 8 km
1000 à 3000 ft
1500m à 5 km
500 à 1000 ft
800 à 1500m
200 à 500 ft
< 800m
< 200 ft
Symboles :   Orages  Brouillard  Fortes neiges  Fortes précipitations  Vent > 20 kt
SIGMETs :   Divers  Orages  Givrage  Turbulence  Onde Orograph.  Cendres Volcan.






- Altitude de l'aérodrome : 1465 ft


LSMP - Payerne

DERNIER METAR :
  • 231420Z AUTO 23014KT 9999NDV FEW160 18/02 Q1027 RMK

METARs EXPIRÉS :
  • 231350Z AUTO 24013KT 9999NDV FEW160 18/01 Q1027 RMK
  • 231320Z AUTO 23012G23KT 200V260 9999NDV NCD 17/00 Q1027 RMK
  • 231250Z AUTO 23012KT 9999NDV FEW160 17/M00 Q1027 RMK
  • 231220Z AUTO 24010KT 9999NDV FEW150 16/01 Q1028 RMK
  • 231150Z AUTO 26009KT 9999NDV FEW062 15/02 Q1028 RMK

Prévision TAF périmée.



MET'MAP, la Météo Aéronautique d'un coup d'oeil ! - Copyright ORBIFLY Décembre 2007 - Disclaimer

ORBIFLY MET'MAP TEAM :

Programmation & Développement : Alexandra Zaïnal
Sur une idée originale de : Baudouin d'Aumeries
Assistance à la programmation : Marc-Olivier Méhu
Soutien technique & logistique : Manuel Goepfert

Contact : metmap@orbifly.com




SOURCES & CREDITS :

   NOAA